Home > Time Zones > World Clock > Weather > Iran > Kerman > Past weeks

Flag for Iran Weather past 2 weeks in Kerman, Iran

Now
48 °F

Sunny.


Feels Like: 45 °F
Forecast: 49 / 65 °F
Wind: 7 mph from Southeast

Location: Kerman Airport

Current Time: Jan 30, 2015 at 8:47:50 AM

Latest Report: Jan 30, 2015 at 8:30 AM


Visibility: 10 mi

Pressure: 30.24 "Hg

Humidity: 32%

Dew point: 19 °F

Location of KermanLocation

Historic Weather in Kerman — Graph

°F

Kerman temperature yesterday

Maximum temperature yesterday: 72 °F (at 3:30 PM)
Minimum temperature yesterday: 39 °F (at 3:30 AM)
Average temperature yesterday: 55 °F

Past Weeks' High & Low Weather Summary

 TemperatureHumidityPressure
High73 °F (Jan 15, 4:30 PM)100% (Jan 18, 3:30 AM)30.36 "Hg (Jan 18, 3:30 AM)
Low19 °F (Jan 15, 7:30 AM)2% (Jan 15, 4:30 PM)29.92 "Hg (Jan 19, 3:30 PM)
Average42 °F50%30.19 "Hg
* Reported Jan 15 7:30 AM — Jan 30 7:30 AM, Kerman, Weather by CustomWeather, © 2014

Note: Actual official high and low records may vary slightly from our data, if they occured in-between our weather recording intervals... More about our weather records

Advertising

Kerman weather history for previous 24 hours

 ConditionsComfort  
Time TempWeatherWind HumidityBarometerVisibility
7:30 AM
Jan 30
41 °FSunny.7 mph36%30.21 "Hg10 mi
6:30 AM37 °FClear.5 mph38%30.18 "Hg10 mi
5:30 AM36 °FClear.7 mph44%30.18 "Hg10 mi
4:30 AM39 °FClear.5 mph36%30.15 "Hg10 mi
3:30 AM41 °FClear.7 mph31%30.15 "Hg10 mi
2:30 AM45 °FClear.7 mph29%30.15 "Hg10 mi
1:30 AM48 °FClear.12 mph25%30.15 "Hg10 mi
12:30 AM46 °FClear.7 mph27%30.18 "Hg10 mi
11:30 PM
Jan 29
50 °FClear.12 mph25%30.15 "Hg10 mi
10:30 PM50 °FClear.9 mph25%30.18 "Hg10 mi
9:30 PM52 °FClear.14 mph22%30.18 "Hg10 mi
8:30 PM52 °FClear.12 mph22%30.18 "Hg10 mi
7:30 PM57 °FClear.7 mph17%30.15 "Hg10 mi
6:30 PM59 °FClear.7 mph14%30.15 "Hg10 mi
5:30 PM63 °FSunny.9 mph12%30.12 "Hg10 mi
4:30 PM70 °FSunny.9 mph8%30.09 "Hg10 mi
3:30 PM72 °FScattered clouds.5 mph8%30.09 "HgN/A
3:00 PM70 °FScattered clouds.7 mph9%30.09 "HgN/A
2:30 PM66 °FPartly sunny.7 mph9%30.09 "HgN/A
2:00 PM66 °FBroken clouds.5 mph9%30.12 "HgN/A
1:30 PM64 °FBroken clouds.7 mph10%30.12 "HgN/A
12:30 PM63 °FPartly sunny.9 mph13%30.15 "HgN/A
12:00 PM63 °FPartly sunny.12 mph13%30.15 "HgN/A
11:30 AM61 °FPartly sunny.12 mph13%30.18 "HgN/A
11:00 AM61 °FScattered clouds.14 mph13%30.18 "HgN/A
10:30 AM61 °FPartly sunny.16 mph13%30.18 "HgN/A
9:30 AM57 °FPartly sunny.14 mph20%30.18 "HgN/A
9:00 AM57 °FPartly sunny.14 mph20%30.18 "HgN/A
8:30 AM50 °FPartly sunny.5 mph40%30.18 "HgN/A
8:00 AM50 °FPartly sunny.9 mph37%30.18 "HgN/A
Weather by CustomWeather, © 2014

See weather overviewHow to use our weather pages